Tiempo cada hora Murzynko

Hoy, 28 Octubre, Miércoles

Tiempo Temperatura Precipitaciones Viento Presión Humedad
00:00 +8°C° 0 mm 3 mps 752 mmHg 88%
01:00 +8°C° 0 mm 3 mps 752 mmHg 89%
02:00 +7°C° 0 mm 3 mps 752 mmHg 88%
03:00 +7°C° 0 mm 3 mps 752 mmHg 88%
04:00 +7°C° 0 mm 3 mps 751 mmHg 87%
05:00 +7°C° 0 mm 3 mps 752 mmHg 86%
06:00 +6°C° 0 mm 4 mps 752 mmHg 85%
07:00 +6°C° 0 mm 4 mps 752 mmHg 84%
08:00 +7°C° 0 mm 5 mps 752 mmHg 77%
09:00 +8°C° 0 mm 5 mps 752 mmHg 71%
10:00 +10°C° 0 mm 6 mps 752 mmHg 64%
11:00 +12°C° 0 mm 5 mps 751 mmHg 61%
12:00 +13°C° 0 mm 5 mps 751 mmHg 58%
13:00 +14°C° 0 mm 5 mps 751 mmHg 54%
14:00 +13°C° 0.1 mm 5 mps 751 mmHg 60%
15:00 +12°C° 0.1 mm 4 mps 751 mmHg 65%
16:00 +11°C° 0.1 mm 3 mps 751 mmHg 70%
17:00 +10°C° 0 mm 3 mps 751 mmHg 72%
18:00 +10°C° 0 mm 3 mps 752 mmHg 74%
19:00 +10°C° 0 mm 3 mps 752 mmHg 76%
20:00 +10°C° 0 mm 3 mps 752 mmHg 78%
21:00 +9°C° 0 mm 3 mps 752 mmHg 81%
22:00 +9°C° 0 mm 3 mps 752 mmHg 83%
23:00 +9°C° 0 mm 3 mps 752 mmHg 85%

Mañana, 29 Octubre, Jueves

Tiempo Temperatura Precipitaciones Viento Presión Humedad
00:00 +8°C° 0 mm 3 mps 752 mmHg 87%
01:00 +8°C° 0 mm 3 mps 752 mmHg 89%
02:00 +8°C° 0 mm 3 mps 751 mmHg 89%
03:00 +8°C° 0 mm 3 mps 751 mmHg 90%
04:00 +8°C° 0 mm 3 mps 751 mmHg 90%
05:00 +8°C° 0 mm 3 mps 751 mmHg 90%
06:00 +7°C° 0 mm 4 mps 751 mmHg 90%
07:00 +7°C° 0 mm 4 mps 751 mmHg 90%
08:00 +8°C° 0 mm 4 mps 751 mmHg 84%
09:00 +9°C° 0 mm 5 mps 751 mmHg 78%
10:00 +10°C° 0 mm 5 mps 751 mmHg 73%
11:00 +10°C° 0 mm 5 mps 750 mmHg 73%
12:00 +12°C° 0 mm 5 mps 750 mmHg 73%
13:00 +12°C° 0 mm 5 mps 750 mmHg 73%
14:00 +10°C° 0.4 mm 5 mps 750 mmHg 77%
15:00 +10°C° 0.4 mm 4 mps 750 mmHg 80%
16:00 +10°C° 0.4 mm 4 mps 751 mmHg 84%
17:00 +8°C° 0.1 mm 4 mps 751 mmHg 83%
18:00 +8°C° 0.1 mm 4 mps 752 mmHg 82%
19:00 +8°C° 0.1 mm 5 mps 752 mmHg 82%
20:00 +8°C° 0 mm 5 mps 753 mmHg 81%
21:00 +8°C° 0 mm 5 mps 753 mmHg 80%
22:00 +8°C° 0 mm 6 mps 753 mmHg 80%
23:00 +7°C° 0 mm 5 mps 754 mmHg 82%

Pasado mañana, 30 Octubre, Viernes

Tiempo Temperatura Precipitaciones Viento Presión Humedad
00:00 +7°C° 0 mm 5 mps 754 mmHg 84%
01:00 +6°C° 0 mm 5 mps 754 mmHg 87%
02:00 +6°C° 0 mm 5 mps 754 mmHg 88%
03:00 +6°C° 0 mm 5 mps 755 mmHg 89%
04:00 +6°C° 0 mm 4 mps 755 mmHg 90%
05:00 +6°C° 0 mm 4 mps 755 mmHg 89%
06:00 +6°C° 0 mm 4 mps 755 mmHg 88%
07:00 +6°C° 0 mm 4 mps 755 mmHg 87%
08:00 +7°C° 0 mm 4 mps 755 mmHg 84%
09:00 +7°C° 0 mm 4 mps 755 mmHg 82%
10:00 +7°C° 0 mm 4 mps 755 mmHg 79%
11:00 +7°C° 0.2 mm 4 mps 755 mmHg 80%
12:00 +7°C° 0.2 mm 4 mps 754 mmHg 81%
13:00 +8°C° 0.2 mm 4 mps 754 mmHg 81%
14:00 +8°C° 1.2 mm 3 mps 754 mmHg 85%
15:00 +8°C° 1.2 mm 3 mps 753 mmHg 89%
16:00 +8°C° 1.2 mm 3 mps 753 mmHg 94%
17:00 +8°C° 1.6 mm 3 mps 753 mmHg 94%
18:00 +8°C° 1.6 mm 2 mps 753 mmHg 95%
19:00 +8°C° 1.6 mm 2 mps 753 mmHg 96%
20:00 +8°C° 0.5 mm 2 mps 753 mmHg 96%
21:00 +8°C° 0.5 mm 2 mps 753 mmHg 95%
22:00 +8°C° 0.5 mm 2 mps 754 mmHg 94%
23:00 +7°C° 0 mm 2 mps 754 mmHg 94%

31 Octubre, Sábado

Tiempo Temperatura Precipitaciones Viento Presión Humedad
00:00 +7°C° 0 mm 2 mps 755 mmHg 95%
01:00 +7°C° 0 mm 2 mps 756 mmHg 95%
02:00 +6°C° 0 mm 2 mps 756 mmHg 94%
03:00 +6°C° 0 mm 2 mps 757 mmHg 94%
04:00 +6°C° 0 mm 1 mps 758 mmHg 93%
05:00 +6°C° 0 mm 1 mps 758 mmHg 92%
06:00 +6°C° 0 mm 1 mps 759 mmHg 91%
07:00 +6°C° 0 mm 1 mps 759 mmHg 90%
08:00 +7°C° 0 mm 1 mps 760 mmHg 84%
09:00 +8°C° 0 mm 1 mps 760 mmHg 79%
10:00 +10°C° 0 mm 1 mps 760 mmHg 73%
11:00 +10°C° 0 mm 1 mps 760 mmHg 70%
12:00 +11°C° 0 mm 1 mps 760 mmHg 67%
13:00 +12°C° 0 mm 1 mps 761 mmHg 63%
14:00 +11°C° 0 mm 1 mps 761 mmHg 67%
15:00 +10°C° 0 mm 1 mps 761 mmHg 70%
16:00 +9°C° 0 mm 1 mps 761 mmHg 74%
17:00 +9°C° 0 mm 1 mps 761 mmHg 76%
18:00 +8°C° 0 mm 1 mps 761 mmHg 78%
19:00 +8°C° 0 mm 1 mps 761 mmHg 80%
20:00 +6°C° 0 mm 2 mps 761 mmHg 82%
21:00 +6°C° 0 mm 2 mps 761 mmHg 83%
22:00 +6°C° 0 mm 2 mps 761 mmHg 84%
23:00 +6°C° 0 mm 2 mps 761 mmHg 86%

1 Noviembre, Domingo

Tiempo Temperatura Precipitaciones Viento Presión Humedad
00:00 +5°C° 0 mm 2 mps 761 mmHg 87%
01:00 +4°C° 0 mm 3 mps 761 mmHg 89%
02:00 +4°C° 0 mm 3 mps 761 mmHg 90%
03:00 +4°C° 0 mm 3 mps 761 mmHg 90%
04:00 +4°C° 0 mm 3 mps 761 mmHg 91%
05:00 +4°C° 0 mm 3 mps 761 mmHg 91%
06:00 +4°C° 0 mm 3 mps 760 mmHg 92%
07:00 +4°C° 0 mm 3 mps 760 mmHg 92%
08:00 +5°C° 0 mm 4 mps 760 mmHg 87%
09:00 +6°C° 0 mm 4 mps 760 mmHg 82%
10:00 +8°C° 0 mm 5 mps 760 mmHg 77%
11:00 +8°C° 0 mm 5 mps 759 mmHg 74%
12:00 +9°C° 0 mm 5 mps 759 mmHg 71%
13:00 +10°C° 0 mm 5 mps 759 mmHg 68%
14:00 +9°C° 0 mm 5 mps 758 mmHg 70%
15:00 +9°C° 0 mm 5 mps 758 mmHg 72%
16:00 +8°C° 0 mm 5 mps 758 mmHg 74%
17:00 +8°C° 0 mm 5 mps 757 mmHg 76%
18:00 +7°C° 0 mm 5 mps 757 mmHg 78%
19:00 +7°C° 0 mm 5 mps 757 mmHg 79%
20:00 +7°C° 0 mm 5 mps 757 mmHg 79%
21:00 +6°C° 0 mm 5 mps 757 mmHg 80%
22:00 +6°C° 0 mm 5 mps 757 mmHg 80%
23:00 +6°C° 0 mm 5 mps 757 mmHg 81%

2 Noviembre, Lunes

Tiempo Temperatura Precipitaciones Viento Presión Humedad
00:00 +6°C° 0 mm 5 mps 757 mmHg 82%
01:00 +6°C° 0 mm 5 mps 757 mmHg 83%
02:00 +6°C° 0 mm 5 mps 756 mmHg 84%
03:00 +6°C° 0 mm 4 mps 756 mmHg 85%
04:00 +5°C° 0 mm 4 mps 756 mmHg 87%
05:00 +5°C° 0 mm 4 mps 756 mmHg 87%
06:00 +5°C° 0 mm 4 mps 756 mmHg 88%
07:00 +5°C° 0 mm 3 mps 756 mmHg 88%
08:00 +6°C° 0 mm 4 mps 756 mmHg 84%
09:00 +7°C° 0 mm 4 mps 756 mmHg 80%
10:00 +8°C° 0 mm 5 mps 756 mmHg 76%
11:00 +9°C° 0 mm 5 mps 756 mmHg 75%
12:00 +10°C° 0 mm 4 mps 756 mmHg 74%
13:00 +11°C° 0 mm 4 mps 756 mmHg 72%
14:00 +11°C° 0 mm 4 mps 756 mmHg 73%
15:00 +11°C° 0 mm 4 mps 756 mmHg 73%
16:00 +10°C° 0 mm 4 mps 756 mmHg 74%
17:00 +10°C° 0.1 mm 4 mps 756 mmHg 74%
18:00 +10°C° 0.1 mm 4 mps 756 mmHg 75%
19:00 +10°C° 0.1 mm 3 mps 756 mmHg 76%
20:00 +10°C° 0.2 mm 4 mps 756 mmHg 75%
21:00 +10°C° 0.2 mm 4 mps 756 mmHg 74%
22:00 +8°C° 0.2 mm 4 mps 756 mmHg 73%
23:00 +8°C° 0.1 mm 4 mps 756 mmHg 74%
Mostrar más

Necesitamos Su Consentimiento

Meteoprog y nuestros Proveedores de Servicios pueden almacenar y acceder a sus datos personales como cookies, identificadores de dispositivo u otras tecnologías similares de su dispositivo y procesar dichos datos para personalizar contenido y anuncios, además de ofrecer funciones de redes sociales y analizar el tráfico.

  • Almacenar y/o acceder a información en su dispositivo

    Se puede almacenar o acceder a cookies, identificadores de dispositivo u otra información de su dispositivo para los fines anteriormente indicados.

  • Anuncios y contenido personalizados, medición de anuncios y contenido, percepciones del público, y desarrollo de productos

    Los anuncios y el contenido pueden personalizarse en base a su perfil. Se pueden añadir más datos para personalizar mejor los anuncios y contenidos. Se puede medir el rendimiento de los anuncios y contenidos. Se puede obtener la percepción sobre el público que ha visto los anuncios y contenidos. Dichos datos pueden usarse para desarrollar o mejorar la experiencia del usuario, sistemas y software.

Al hacer clic en ‘Estoy De Acuerdo’ usted permitirá el uso de las cookies, identificadores de dispositivo, balizas web u otras tecnologías similares indicadas. Su configuración puede cambiarse desde el navegador de su dispositivo.

Para ciertos fines, los intereses legítimos pueden ser considerados por encima del consentimiento. Puede leer más sobre ello en nuestra Política de Privacidad y Cookies.